全部
Kempsey Airport (Kempsey, New South Wales) KPS 天氣
|
Kempsey, New South Wales (KPS / YKMP)
晴天
微風 |
|
18 °C |
There is no TAF data available at KPS. Showing TAF data for YPMQ (26 mi S).
PQQ終端機場天氣預報(KPS無資料)
| Here is the undecoded forecast: 2026/05/03 21:45 YPMQ 032145Z 0321/0406 36005KT 9999 -SHRA SCT020 FM040000 03012KT 9999 -SHRA SCT030 INTER 0321/0323 5000 SHRA BKN008 INTER 0323/0402 5000 SHRA SCT015 RMK T 18 22 24 23 Q 1019 1019 1016 1016 |
KPS近期METAR歷史資料
| Date | Time (AEST) | Flight Rules | Wind Dir. | Speed | Type | Height AGL (ft) | Visibility | Temp (°C) | Temp (°F) | Dew Point (°C) | Dew Point (°F) | Rel. Humid. | Pressure | Density Altitude | Remarks |
|---|---|---|---|---|---|---|---|---|---|---|---|---|---|---|---|
| 04-五月 | 08:00 | n/a | 310° | 4 kt | Missing | 18° | 64° | 17° | 62° | 94% | 1019 mb | 243 ft | |||
| 04-五月 | 07:00 | n/a | Calm | Missing | 17° | 62° | 17° | 62° | 100% | 1019 mb | 123 ft | ||||
| 04-五月 | 06:00 | n/a | Calm | Missing | 17° | 62° | 17° | 62° | 100% | 1018 mb | 152 ft | ||||
| 04-五月 | 05:00 | n/a | 10° | 3 kt | Missing | 17° | 62° | 16° | 60° | 94% | 1018 mb | 152 ft | |||
| 04-五月 | 04:00 | n/a | Calm | Missing | 16° | 60° | 16° | 60° | 100% | 1018 mb | 32 ft | ||||
| 04-五月 | 03:00 | n/a | 310° | 6 kt | Missing | 17° | 62° | 17° | 62° | 100% | 1018 mb | 152 ft | |||
| 04-五月 | 02:00 | n/a | 300° | 5 kt | Missing | 17° | 62° | 17° | 62° | 100% | 1019 mb | 123 ft | |||
| 04-五月 | 01:00 | n/a | Calm | Missing | 17° | 62° | 17° | 62° | 100% | 1019 mb | 123 ft | ||||
| 04-五月 | 00:00 | n/a | Calm | Missing | 17° | 62° | 17° | 62° | 100% | 1020 mb | 93 ft | ||||
| 03-五月 | 23:00 | n/a | 280° | 5 kt | Missing | 18° | 64° | 17° | 62° | 94% | 1020 mb | 213 ft | |||
| 03-五月 | 22:00 | n/a | Calm | Missing | 17° | 62° | 17° | 62° | 100% | 1020 mb | 93 ft | ||||
| 03-五月 | 21:00 | n/a | 100° | 1 kt | Missing | 17° | 62° | 17° | 62° | 100% | 1020 mb | 93 ft | |||
| 03-五月 | 20:00 | n/a | Calm | Missing | 18° | 64° | 18° | 64° | 100% | 1020 mb | 213 ft | ||||
| 03-五月 | 19:00 | n/a | 160° | 3 kt | Missing | 19° | 66° | 18° | 64° | 94% | 1021 mb | 304 ft | |||
| 03-五月 | 18:00 | n/a | Calm | Missing | 19° | 66° | 18° | 64° | 94% | 1020 mb | 333 ft | ||||
| 03-五月 | 17:00 | n/a | 330° | 5 kt | Missing | 20° | 68° | 18° | 64° | 88% | 1020 mb | 453 ft | |||
| 03-五月 | 16:00 | n/a | 250° | 3 kt | Missing | 22° | 71° | 18° | 64° | 78% | 1020 mb | 693 ft | |||
| 03-五月 | 15:00 | n/a | 290° | 6 kt | Missing | 21° | 69° | 18° | 64° | 83% | 1020 mb | 573 ft | |||
| 03-五月 | 14:00 | n/a | 360° | 6 kt | Missing | 20° | 68° | 18° | 64° | 88% | 1021 mb | 424 ft | |||
| 03-五月 | 13:00 | n/a | 30° | 5 kt | Missing | 23° | 73° | 17° | 62° | 69% | 1021 mb | 784 ft | |||
| 03-五月 | 12:00 | n/a | 360° | 3 kt | Missing | 21° | 69° | 17° | 62° | 78% | 1022 mb | 514 ft | |||
| 03-五月 | 11:00 | n/a | 340° | 3 kt | Missing | 21° | 69° | 18° | 64° | 83% | 1023 mb | 485 ft | |||
| 03-五月 | 10:00 | n/a | 310° | 3 kt | Missing | 20° | 68° | 17° | 62° | 83% | 1023 mb | 365 ft | |||
| 03-五月 | 09:00 | n/a | 270° | 5 kt | Missing | 18° | 64° | 17° | 62° | 94% | 1023 mb | 125 ft |
登入
| 您的瀏覽器不支援. 升級您的瀏覽器 |
